Location: ???????
(55.4362°N, 38.1183°E)
Time: 19:06:52
(UTC+00:00)

COSMOS 2251 DEB - Visible Passes

Search period start: 24 January 2022 00:00
Search period end: 03 February 2022 00:00
Orbit: 519 x 670 km, 74.0° (Epoch: 24 January)

Date Brightness Start Highest point End Pass type
(mag) Time Alt. Az. Time Alt. Az. Time Alt. Az.
24 Jan ? 02:52:45 37° S 02:52:45 37° S 02:55:17 10° SSE visible
25 Jan ? 03:02:58 22° SSW 03:02:58 22° SSW 03:04:35 10° S visible
26 Jan ? 03:13:17 12° SSW 03:13:17 12° SSW 03:13:38 10° SSW visible
26 Jan ? 17:18:38 10° SSW 17:18:52 11° SSW 17:18:52 11° SSW visible
27 Jan ? 15:51:07 10° SSE 15:52:40 17° SE 15:52:40 17° SE visible
27 Jan ? 17:28:22 10° SW 17:29:23 17° SW 17:29:23 17° SW visible
28 Jan ? 16:00:04 10° S 16:03:07 31° SE 16:03:07 31° SE visible
28 Jan ? 17:38:16 10° WSW 17:39:49 20° WSW 17:39:49 20° WSW visible
29 Jan ? 16:09:16 10° S 16:13:15 51° ESE 16:13:26 50° E visible
29 Jan ? 17:48:21 10° WSW 17:50:08 20° W 17:50:08 20° W visible
30 Jan ? 14:43:46 10° ESE 14:45:08 11° E 14:46:30 10° ENE visible
30 Jan ? 16:18:42 10° SSW 16:22:46 79° ESE 16:23:39 53° NE visible
30 Jan ? 17:58:38 10° W 18:00:20 17° WNW 18:00:20 17° WNW visible
31 Jan ? 14:51:45 10° SE 14:54:28 17° E 14:57:07 10° ENE visible
31 Jan ? 16:28:19 10° SW 16:32:21 68° WNW 16:33:48 37° NNE visible
31 Jan ? 18:09:07 10° WNW 18:10:27 14° NW 18:10:27 14° NW visible
01 Feb ? 15:00:27 10° SSE 15:03:50 26° ESE 15:07:08 10° NE visible
01 Feb ? 16:38:06 10° SW 16:41:59 45° NW 16:43:48 26° N visible
01 Feb ? 18:20:00 10° NW 18:20:29 11° NW 18:20:29 11° NW visible
02 Feb ? 15:09:29 10° S 15:13:16 39° ESE 15:16:57 10° NE visible
02 Feb ? 16:48:04 10° WSW 16:51:40 31° NW 16:53:45 19° N visible
